{"data":{"norad_id":68975,"epoch":"2026-05-25T04:00:03.998880Z","epoch_age_seconds":63789,"freshness":"FRESH","line1":"1 68975U 26099AA  26145.16671295 -.02166169  00000+0 -26881-1 0  9994","line2":"2 68975  53.1591 269.9802 0000752  86.6217 250.4237 15.62509594  5016","mean_motion":15.62509594,"eccentricity":7.52e-5,"inclination_deg":53.1591,"raan_deg":269.9802,"arg_perigee_deg":86.6217,"mean_anomaly_deg":250.4237,"bstar":-0.026881,"rev_number":501,"period_min":92.159434126329,"perigee_km":379.90239941755,"apogee_km":380.91888498294,"semimajor_km":6758.5476422002,"source":"CELESTRAK","updated_at":"2026-05-25T13:38:22.077586Z"}}